Terminal Aerodrome Forecast
Issued by NWS

Home | Current Version | Previous Version | Graphics & Text | Print | Product List | Glossary On
Versions: 1 2 3 4 5 6 7 8 9 10 11 12
550
FTUS43 KICT 210520
TAFCNU
TAF
KCNU 210520Z 2106/2206 17007KT P6SM SKC
     FM211500 20013KT P6SM SKC
     FM211800 19017KT P6SM SCT035
     FM220100 18007KT P6SM SKC=

USA.gov is the U.S. government's official web portal to all federal, state and local government web resources and services.